Tracking 25656 objects as of 21-May-2022
HD Live streaming from Space Station
objects crossing your sky now

COSMOS 1867 COOLANT

Track COSMOS 1867 COOLANT now!
10-day predictions


NORAD ID: 43326
Int'l Code: 1987-060AT
Perigee: 779.5 km
Apogee: 805.7 km
Inclination: 65.0 °
Period: 100.6 minutes
Semi major axis: 7163 km
RCS: Unknown
Launch date: July 10, 1987
Source: Commonwealth of Independent States (former USSR) (CIS)
Launch site: TYURATAM MISSILE AND SPACE COMPLEX (TTMTR)

Note: This is SATELLITE DEBRIS
aabbcc
Your satellite tracking list
Your tracking list is empty




NASA's NSSDC Master Catalog

Two Line Element Set (TLE):
1 43326U 87060AT  22139.99157467  .00000459  00000-0  20804-3 0  9999
2 43326  65.0110 231.9657 0018320 257.7115 102.1918 14.31880322243854
Source of the keplerian elements: AFSPC